WA1UHF Weather Reports


time (UTC)temp
C
wind
direction
speed
KPH
gust
KPH
rain 1hr
cm
rain 24hr
cm
rain mn
cm
humidity
%
barometer
mb
20260506024602 14 201 3.2 11.3 0.00 0.00 0.00 78 1007.9
20260506023102 14 0 3.2 11.3 0.00 0.00 0.00 78 1007.9
20260506021557 14 111 1.6 8.0 0.00 0.00 0.00 79 1008.0
20260506020044 14 0 0.0 6.4 0.00 0.00 0.00 79 1008.2
20260506014547 14 0 0.0 4.8 0.00 0.00 0.00 79 1008.3
20260506013048 14 241 1.6 9.7 0.00 0.00 0.00 78 1008.6
20260506011609 14 164 1.6 8.0 0.00 0.00 0.00 77 1008.1
20260506010040 15 232 3.2 9.7 0.00 0.00 0.00 76 1007.8
20260506004545 15 188 1.6 9.7 0.00 0.00 0.00 75 1007.4
20260506003046 15 265 1.6 6.4 0.00 0.00 0.00 75 1007.0
20260506001545 16 211 3.2 8.0 0.00 0.00 0.00 74 1006.8
20260506000056 16 0 0.0 3.2 0.00 0.00 0.00 73 1006.8
20260505234545 16 150 0.0 3.2 0.00 0.00 0.00 72 1006.9
20260505233045 17 0 0.0 6.4 0.00 0.00 0.00 70 1007.2
20260505231545 17 264 6.4 19.3 0.00 0.00 0.00 67 1007.1
20260505230058 17 188 14.5 38.6 0.00 0.00 0.00 64 1005.4
20260505224541 17 283 3.2 16.1 0.00 0.00 0.00 65 1004.7
20260505223040 18 190 4.8 22.5 0.00 0.00 0.00 63 1004.5
20260505221557 18 168 3.2 16.1 0.00 0.00 0.00 63 1004.2
20260505220057 18 199 4.8 19.3 0.00 0.00 0.00 63 1004.2
20260505214552 18 269 8.0 27.4 0.00 0.00 0.00 62 1003.7
20260505213041 19 200 9.7 37.0 0.00 0.00 0.00 62 1003.9
20260505211542 20 242 6.4 20.9 0.00 0.00 0.00 61 1003.8
20260505210051 20 167 4.8 35.4 0.00 0.00 0.00 60 1004.0
20260505204555 20 159 8.0 25.7 0.00 0.00 0.00 61 1004.0
20260505203119 21 192 6.4 24.1 0.00 0.00 0.00 59 1003.9
20260505201546 21 206 6.4 29.0 0.00 0.00 0.00 58 1004.0
20260505200048 21 183 6.4 22.5 0.00 0.00 0.00 60 1004.1
20260505194556 21 117 6.4 22.5 0.00 0.00 0.00 60 1004.3
20260505193047 21 319 4.8 30.6 0.00 0.00 0.00 59 1004.4
20260505191547 21 192 4.8 22.5 0.00 0.00 0.00 59 1004.7
20260505190053 21 159 8.0 27.4 0.00 0.00 0.00 61 1005.1
20260505184552 21 185 9.7 30.6 0.00 0.00 0.00 57 1005.1
20260505183051 22 224 8.0 24.1 0.00 0.00 0.00 55 1005.1
20260505181545 23 272 6.4 25.7 0.00 0.00 0.00 56 1005.2
20260505180046 22 264 8.0 32.2 0.00 0.00 0.00 53 1005.4
20260505174542 22 275 8.0 22.5 0.00 0.00 0.00 55 1005.5
20260505173040 22 207 8.0 24.1 0.00 0.00 0.00 55 1005.6
20260505171548 22 109 4.8 19.3 0.00 0.00 0.00 57 1006.2
20260505170046 21 142 6.4 24.1 0.00 0.00 0.00 57 1006.3
20260505164556 21 0 6.4 19.3 0.00 0.00 0.00 61 1006.5
20260505163045 20 220 4.8 16.1 0.00 0.00 0.00 61 1006.7
20260505161553 18 221 3.2 19.3 0.00 0.00 0.00 65 1007.0
20260505153055 19 275 8.0 20.9 0.00 0.00 0.00 60 1008.1
20260505151544 20 96 8.0 25.7 0.00 0.00 0.00 59 1007.8
20260505124549 17 200 4.8 12.9 0.00 0.00 0.00 65 1008.0
20260505123055 16 142 3.2 12.9 0.00 0.00 0.00 65 1008.0
20260505121546 16 161 4.8 17.7 0.00 0.00 0.00 66 1008.2
20260505120059 15 211 3.2 11.3 0.00 0.00 0.00 70 1008.4
20260505114545 13 178 3.2 9.7 0.00 0.00 0.00 73 1008.2
20260505113101 12 195 1.6 11.3 0.00 0.00 0.00 77 1008.1
20260505111549 11 103 1.6 6.4 0.00 0.00 0.00 81 1008.4
20260505101543 7 0 0.0 6.4 0.00 0.00 0.00 92 1008.3
20260505100042 7 0 0.0 1.6 0.00 0.00 0.00 94 1008.1
20260505094545 6 138 0.0 3.2 0.00 0.00 0.00 94 1008.1
20260505093051 6 257 0.0 3.2 0.00 0.00 0.00 93 1008.0
20260505091546 6 0 0.0 4.8 0.00 0.00 0.00 94 1008.0
20260505090045 6 0 0.0 0.0 0.00 0.00 0.00 94 1008.1
20260505084547 6 0 0.0 0.0 0.00 0.00 0.00 94 1008.2
20260505083053 6 0 0.0 0.0 0.00 0.00 0.00 94 1008.3
20260505081551 5 0 0.0 0.0 0.00 0.00 0.00 94 1008.3
20260505080047 6 0 0.0 0.0 0.00 0.00 0.00 93 1008.3
20260505074545 6 0 0.0 0.0 0.00 0.00 0.00 93 1008.1
20260505073044 6 0 0.0 0.0 0.00 0.00 0.00 93 1008.1
20260505071545 6 0 0.0 0.0 0.00 0.00 0.00 91 1008.2
20260505070046 6 0 0.0 0.0 0.00 0.00 0.00 91 1008.1
20260505064540 6 0 0.0 0.0 0.00 0.00 0.00 91 1008.1
20260505063045 6 0 0.0 1.6 0.00 0.00 0.00 91 1008.1
20260505061545 6 0 0.0 0.0 0.00 0.00 0.00 90 1008.2
20260505060046 6 0 0.0 1.6 0.00 0.00 0.00 90 1008.2
20260505054546 6 0 0.0 0.0 0.00 0.00 0.00 90 1008.2
20260505053110 6 0 0.0 1.6 0.00 0.00 0.00 91 1008.1
20260505051539 6 181 1.6 3.2 0.00 0.00 0.00 89 1007.9
20260505041544 8 0 0.0 0.0 0.00 0.00 0.00 86 1007.7
20260505040041 8 0 0.0 0.0 0.00 0.00 0.00 85 1007.6
20260505034601 8 0 0.0 0.0 0.00 0.00 0.00 83 1007.4
20260505033050 8 0 0.0 3.2 0.00 0.00 0.00 83 1007.4
20260505031542 9 0 0.0 3.2 0.00 0.00 0.00 81 1007.3
20260505030049 9 0 0.0 0.0 0.00 0.00 0.00 80 1007.5